Weather History for Leadville, CO

Change the Weather History Date:

Friday, March 19, 2004

  Actual Average Record
Temperature  
Mean Temperature 42 °F -  
Max Temperature 51 °F 38 °F 51 °F (2004)
Min Temperature 33 °F 12 °F -6 °F (1979)
Degree Days  
Heating Degree Days 23 40  
Month to date heating degree days 804  
Since 1 July heating degree days 8514  
Cooling Degree Days 0 0  
Month to date cooling degree days 0  
Year to date cooling degree days 0  
Moisture  
Dew Point 15 °F    
Average Humidity 35    
Maximum Humidity 46    
Minimum Humidity 26    
Precipitation  
Precipitation 0.00 in 0.03 in 0.52 in (2003)
Month to date precipitation 0.55  
Year to date precipitation 1.87  
Sea Level Pressure  
Sea Level Pressure 30.03 in    
Wind  
Wind Speed 9 mph (NNW)    
Max Wind Speed 17 mph    
Max Gust Speed 23 mph    
Visibility 10 miles    
Events      
T = Trace of Precipitation, MM = Missing Value Source: NWS Daily Summary

Daily Weather History Graph

Daily Weather History Graph

Search for Another Location

Airport:

Trip Planner

Search our weather history database for the weather conditions in past years. The results will help you decide how hot, cold, wet, or windy it might be!

Date:

Astronomy

Mar. 19, 2004 Rise Set
Actual Time 6:09 AM MST 6:16 PM MST
Civil Twilight 5:42 AM MST 6:43 PM MST
Nautical Twilight 5:11 AM MST 7:14 PM MST
Astronomical Twilight 4:39 AM MST 7:46 PM MST
Moon 5:53 AM MST (3/19) 5:08 PM MST (3/19)
Length of Visible Light 13h 00m
Length of Day
12h 07m
Waning Crescent, 2% of the Moon is Illuminated
Mar 19
Waning Crescent
Mar 20
New
Mar 28
First Quarter
Apr 5
Full
Apr 11
Last Quarter

Hourly Weather History & Observations

Time (MST) Temp. Windchill Dew Point Humidity Pressure Visibility Wind Dir Wind Speed Gust Speed Precip Events Conditions
12:56 AM 35.1 °F 29.3 °F 14.0 °F 42% 29.97 in 10.0 mi NNW 6.9 mph - N/A   Clear
1:56 AM 34.0 °F 28.0 °F 12.9 °F 42% 29.96 in 10.0 mi North 6.9 mph - N/A   Clear
2:56 AM 33.1 °F 26.1 °F 14.0 °F 46% 29.96 in 10.0 mi North 8.1 mph - N/A   Clear
3:56 AM 33.1 °F 26.1 °F 12.9 °F 43% 29.94 in 10.0 mi NE 8.1 mph - N/A   Clear
4:56 AM 36.0 °F 28.0 °F 12.9 °F 39% 29.95 in 10.0 mi North 11.5 mph - N/A   Clear
5:56 AM 33.1 °F 26.9 °F 12.9 °F 43% 30.01 in 10.0 mi NNE 6.9 mph - N/A   Clear
6:56 AM 37.0 °F 31.0 °F 14.0 °F 39% 30.04 in 10.0 mi North 8.1 mph - N/A   Clear
7:56 AM 37.0 °F 31.0 °F 14.0 °F 39% 30.08 in 10.0 mi North 8.1 mph - N/A   Clear
8:56 AM 43.0 °F 37.7 °F 16.0 °F 34% 30.04 in 10.0 mi North 9.2 mph - N/A   Clear
9:56 AM 46.0 °F 40.2 °F 16.0 °F 30% 30.01 in 10.0 mi NNW 12.7 mph 19.6 mph N/A   Clear
10:56 AM 45.0 °F 37.9 °F 17.1 °F 33% 30.01 in 10.0 mi NNW 16.1 mph 20.7 mph N/A   Clear
11:56 AM 46.9 °F - 16.0 °F 29% 30.01 in 10.0 mi NNW 11.5 mph 20.7 mph N/A   Clear
12:56 PM 50.0 °F - 17.1 °F 27% 29.96 in 10.0 mi NW 11.5 mph - N/A   Clear
1:56 PM 50.0 °F - 16.0 °F 26% 29.97 in 10.0 mi NNW 12.7 mph 19.6 mph N/A   Clear
2:56 PM 50.0 °F - 18.0 °F 28% 29.99 in 10.0 mi NW 11.5 mph 16.1 mph N/A   Partly Cloudy
3:56 PM 51.1 °F - 19.0 °F 28% 30.01 in 10.0 mi WNW 17.3 mph 23.0 mph N/A   Mostly Cloudy
4:56 PM 48.0 °F - 19.0 °F 32% 30.03 in 10.0 mi WNW 15.0 mph 21.9 mph N/A   Scattered Clouds
5:56 PM 45.0 °F 38.9 °F 17.1 °F 33% 30.09 in 10.0 mi NW 12.7 mph - N/A   Clear
6:56 PM 44.1 °F 40.1 °F 16.0 °F 32% 30.08 in 10.0 mi NW 6.9 mph - N/A   Clear
7:56 PM 41.0 °F 39.0 °F 14.0 °F 33% 30.12 in 10.0 mi Variable 3.5 mph - N/A   Clear
8:56 PM 43.0 °F 39.5 °F 12.9 °F 30% 30.09 in 10.0 mi Variable 5.8 mph - N/A   Clear
9:56 PM 39.9 °F 35.1 °F 14.0 °F 35% 30.11 in 10.0 mi Variable 6.9 mph - N/A   Clear
10:56 PM 35.1 °F 28.6 °F 12.9 °F 40% 30.16 in 10.0 mi ENE 8.1 mph - N/A   Clear
11:56 PM 39.0 °F 34.8 °F 12.9 °F 34% 30.13 in 10.0 mi NE 5.8 mph - N/A   Clear